Jackpot Winner Domino

Jackpot hanya dapat di beli di awal sebelum periode tersebut berjalan dan jika berhasil maka anda dapat melihat di sisi kiri bawah atau kiri atas akan terdapat notifikasi bahwa jackpot anda berhasil di beli.

Jika anda membeli jackpot di tengah permainan maka pembelian jackpot akan berlaku untuk periode selanjutnya.

Ikutilah global jackpot yang tersedia di system kami, dengan system jackpot terbaru dan pertama di indonesia, anda dapat membeli jackpot dengan harga 100 rupiah saja dan menangkan hadiahnya hingga puluhan juta rupiah.

Jackpot bukanlah suatu keharusan untuk dibeli, namun kami memberikan suatu fitur tambahan untuk member tercinta dari www.nagapkr.com.

Terdapat tiga pilihan harga jackpot yang bisa anda beli yaitu :100,500 dan 1000 rupiah.

Hadiah dari Multi jackpot system www.nagapkr.com

  1. Murni Kecil x 50 harga jackpot yang anda beli.
      (contoH:anda membeli 1000 maka:1000 X 50 = 50.000)
  2. Murni Besar x 50 harga jackpot yang anda beli
      (contoH:anda membeli 1000 maka:1000 X 50 = 50.000)
  3. BALAK x 100 harga jackpot yang anda beli
      (contoH:anda membeli 1000 maka:1000 X 100 = 100.000)
  4. ENAM DEWA x 6666 harga jackpot yang anda beli
      (contoH:anda membeli 1000 maka:1000 X 6666 = 6.666.000)

Demikian adalah penjelasan dari Multi Jackpot www.nagapkr.com terima kasih dan selamat bermain salam hoki dari kami


Note: Untuk mendapatkan jackpot di satu periode, pemain harus menyelesaikan permainan di periode tersebut, minimal 2 pemain. Jika semua pemain 'fold' jackpot tidak akan diturunkan.


Jackpot Winner

TOP ENAM DEWA
No. Tanggal Nama Price Win
1 21/02 14:31 IKENZ99 murni enam 6,666,000
2 21/02 12:27 BORJONK murni enam 6,666,000
3 21/02 09:30 JAYA891 murni enam 3,333,000
4 21/02 08:30 H36JY9PB66 murni enam 6,666,000
5 21/02 07:21 TEMPALO murni enam 6,666,000
TOP BALAK
No. Tanggal Nama Price Win
1 21/02 15:51 LUCKYXXX30 balak 10,000
2 21/02 15:49 BABILOE87 balak 100,000
3 21/02 15:49 DEWAMALAM9 balak 100,000
4 21/02 15:48 IRM4123 balak 50,000
5 21/02 15:42 IRM4123 balak 50,000
LATEST JACKPOT
No. Tanggal Nama Price Win
1 21/02 15:55 RAVINA murni kecil 5,000
2 21/02 15:55 AYISS999 murni besar 25,000
3 21/02 15:54 BLOW100 murni kecil 5,000
4 21/02 15:54 JACKPOUT88 murni besar 25,000
5 21/02 15:54 ERI8901 lucky99 10,000
6 21/02 15:54 DD4898AD murni kecil 25,000
7 21/02 15:54 WK22 murni besar 50,000
8 21/02 15:53 MANGFRANK murni besar 25,000
9 21/02 15:51 ZEZESAFA murni besar 25,000
10 21/02 15:51 LUCKYXXX30 balak 10,000
11 21/02 15:50 AHUNG66 murni besar 50,000
12 21/02 15:50 PIPIMP101 murni kecil 50,000
13 21/02 15:50 GRAN01 murni besar 5,000
14 21/02 15:49 BABILOE87 balak 100,000
15 21/02 15:49 IJAK12 murni kecil 25,000
16 21/02 15:49 DEWAMALAM9 balak 100,000
17 21/02 15:48 FIT9 murni kecil 50,000
18 21/02 15:48 IRM4123 balak 50,000
19 21/02 15:48 R0MBENG01 murni besar 5,000
20 21/02 15:48 B18888186 murni kecil 50,000
21 21/02 15:47 ORDEM07 murni kecil 50,000
22 21/02 15:47 MAYZADA murni besar 50,000
23 21/02 15:47 JONIPAMUNG murni kecil 25,000
24 21/02 15:46 SURO92 murni kecil 50,000
25 21/02 15:46 EBEXS150 murni besar 25,000
26 21/02 15:45 HRYII murni kecil 50,000
27 21/02 15:45 JN1982 murni besar 50,000
28 21/02 15:45 BAE_HAQIE murni kecil 50,000
29 21/02 15:44 PUGALU063 murni kecil 50,000
30 21/02 15:42 IRM4123 balak 50,000
31 21/02 15:42 QQBAGRALA murni besar 50,000
32 21/02 15:42 UDUDSELER murni kecil 50,000
33 21/02 15:42 S41NS murni besar 5,000
34 21/02 15:41 KOCAK990 murni kecil 50,000
35 21/02 15:40 GRASSER murni kecil 5,000
36 21/02 15:39 ZIDAD88 balak 50,000
37 21/02 15:39 OIE41 murni kecil 50,000
38 21/02 15:39 ABDILLAH0 lucky99 10,000
39 21/02 15:38 B18888186 murni kecil 50,000
40 21/02 15:38 ALIKAWAN balak 100,000
41 21/02 15:38 KITING123 murni besar 50,000
42 21/02 15:38 GUUH99 murni kecil 50,000
43 21/02 15:38 BBIJIPELER murni kecil 25,000
44 21/02 15:37 ABANGIDULL murni kecil 5,000
45 21/02 15:37 HBISKAN1 murni besar 5,000
46 21/02 15:36 SHATZI8866 murni besar 50,000
47 21/02 15:36 W6ACY81D5G murni besar 5,000
48 21/02 15:36 JBR1222 lucky99 50,000
49 21/02 15:36 ANOV1 murni besar 50,000
50 21/02 15:36 KUNCLUNG99 balak 100,000